Location: Newark
(44.6028°N, 124.0883°W)
Time: 00:19:22
(UTC+00:00)

N. Korean satellite - Pass Details

Date: 29 October 2020
Orbit: 452 x 504 km, 97.2° (Epoch: 24 November)

Event Time Altitude Azimuth Distance (km) Brightness Sun altitude
Rises 13:56:28 0° 10° (N) 2,478 10.2 -10.2°
Reaches altitude 10° 13:58:31 10° 10° (N) 1,598 9.2 -9.9°
Maximum altitude 14:01:56 79° 284° (WNW) 468 6.3 -9.3°
Drops below altitude 10° 14:05:19 10° 197° (SSW) 1,586 9.1 -8.7°
Sets 14:07:21 0° 196° (SSW) 2,458 10.1 -8.3°
